| time (UTC) | temp C | wind direction | speed KPH | gust KPH | rain 1hr cm | rain 24hr cm | rain mn cm | humidity % | barometer mb |
| 20260504215201 | 21 | 191 | 6.4 | 12.9 | 0.00 | 0.00 | 0.00 | 41 | 1009.4 |
| 20260504214700 | 21 | 184 | 6.4 | 12.9 | 0.00 | 0.00 | 0.00 | 39 | 1009.3 |
| 20260504214159 | 21 | 196 | 4.8 | 9.7 | 0.00 | 0.00 | 0.00 | 41 | 1009.3 |
| 20260504213158 | 21 | 166 | 4.8 | 11.3 | 0.00 | 0.00 | 0.00 | 42 | 1009.4 |
| 20260504212652 | 21 | 188 | 6.4 | 14.5 | 0.00 | 0.00 | 0.00 | 40 | 1009.4 |
| 20260504212146 | 21 | 171 | 6.4 | 14.5 | 0.00 | 0.00 | 0.00 | 39 | 1009.5 |
| 20260504211640 | 21 | 153 | 8.0 | 17.7 | 0.00 | 0.00 | 0.00 | 39 | 1009.4 |
| 20260504211134 | 21 | 201 | 8.0 | 17.7 | 0.00 | 0.00 | 0.00 | 40 | 1009.4 |
| 20260504210628 | 21 | 159 | 4.8 | 17.7 | 0.00 | 0.00 | 0.00 | 41 | 1009.4 |
| 20260504210122 | 21 | 173 | 4.8 | 11.3 | 0.00 | 0.00 | 0.00 | 40 | 1009.4 |
| 20260504205617 | 21 | 207 | 4.8 | 11.3 | 0.00 | 0.00 | 0.00 | 40 | 1009.4 |
| 20260504205115 | 21 | 177 | 4.8 | 14.5 | 0.00 | 0.00 | 0.00 | 41 | 1009.4 |
| 20260504204613 | 21 | 169 | 6.4 | 17.7 | 0.00 | 0.00 | 0.00 | 41 | 1009.4 |
| 20260504204113 | 21 | 171 | 6.4 | 17.7 | 0.00 | 0.00 | 0.00 | 40 | 1009.5 |
| 20260504203614 | 21 | 177 | 6.4 | 16.1 | 0.00 | 0.00 | 0.00 | 40 | 1009.5 |
| 20260504203112 | 21 | 164 | 6.4 | 16.1 | 0.00 | 0.00 | 0.00 | 41 | 1009.5 |
| 20260504202609 | 21 | 165 | 6.4 | 14.5 | 0.00 | 0.00 | 0.00 | 41 | 1009.6 |
| 20260504202110 | 21 | 178 | 4.8 | 14.5 | 0.00 | 0.00 | 0.00 | 40 | 1009.8 |
| 20260504201611 | 21 | 163 | 3.2 | 9.7 | 0.00 | 0.00 | 0.00 | 41 | 1009.8 |
| 20260504201110 | 21 | 120 | 4.8 | 9.7 | 0.00 | 0.00 | 0.00 | 42 | 1009.8 |
| 20260504195609 | 21 | 172 | 4.8 | 9.7 | 0.00 | 0.00 | 0.00 | 40 | 1010.1 |
| 20260504195108 | 21 | 173 | 6.4 | 14.5 | 0.00 | 0.00 | 0.00 | 40 | 1010.1 |
| 20260504194605 | 21 | 177 | 6.4 | 16.1 | 0.00 | 0.00 | 0.00 | 41 | 1010.2 |
| 20260504194105 | 21 | 165 | 6.4 | 16.1 | 0.00 | 0.00 | 0.00 | 40 | 1010.3 |
| 20260504193606 | 21 | 185 | 6.4 | 12.9 | 0.00 | 0.00 | 0.00 | 39 | 1010.4 |
| 20260504193106 | 21 | 171 | 6.4 | 12.9 | 0.00 | 0.00 | 0.00 | 41 | 1010.6 |
| 20260504192600 | 21 | 168 | 6.4 | 12.9 | 0.00 | 0.00 | 0.00 | 42 | 1010.5 |
| 20260504192054 | 21 | 180 | 8.0 | 14.5 | 0.00 | 0.00 | 0.00 | 43 | 1010.7 |
| 20260504191548 | 21 | 205 | 6.4 | 14.5 | 0.00 | 0.00 | 0.00 | 39 | 1010.8 |
| 20260504191042 | 21 | 166 | 4.8 | 16.1 | 0.00 | 0.00 | 0.00 | 39 | 1010.8 |
| 20260504190536 | 21 | 140 | 6.4 | 16.1 | 0.00 | 0.00 | 0.00 | 41 | 1010.9 |
| 20260504190031 | 21 | 188 | 4.8 | 16.1 | 0.00 | 0.00 | 0.00 | 40 | 1011.0 |
| 20260504185524 | 21 | 185 | 3.2 | 9.7 | 0.00 | 0.00 | 0.00 | 41 | 1011.1 |
| 20260504185019 | 21 | 158 | 6.4 | 12.9 | 0.00 | 0.00 | 0.00 | 43 | 1011.2 |
| 20260504184512 | 20 | 184 | 8.0 | 17.7 | 0.00 | 0.00 | 0.00 | 40 | 1011.2 |
| 20260504184006 | 20 | 184 | 8.0 | 17.7 | 0.00 | 0.00 | 0.00 | 40 | 1011.4 |
| 20260504183500 | 20 | 201 | 6.4 | 16.1 | 0.00 | 0.00 | 0.00 | 44 | 1011.4 |
| 20260504182954 | 20 | 179 | 8.0 | 16.1 | 0.00 | 0.00 | 0.00 | 41 | 1011.4 |
| 20260504181942 | 20 | 183 | 4.8 | 12.9 | 0.00 | 0.00 | 0.00 | 39 | 1011.6 |
| 20260504181436 | 20 | 168 | 6.4 | 12.9 | 0.00 | 0.00 | 0.00 | 41 | 1011.7 |
| 20260504180930 | 20 | 174 | 4.8 | 11.3 | 0.00 | 0.00 | 0.00 | 42 | 1011.6 |
| 20260504180424 | 20 | 197 | 6.4 | 12.9 | 0.00 | 0.00 | 0.00 | 42 | 1011.7 |
| 20260504175919 | 20 | 180 | 6.4 | 19.3 | 0.00 | 0.00 | 0.00 | 41 | 1011.7 |
| 20260504175412 | 20 | 166 | 6.4 | 19.3 | 0.00 | 0.00 | 0.00 | 44 | 1011.6 |
| 20260504174400 | 21 | 194 | 3.2 | 8.0 | 0.00 | 0.00 | 0.00 | 42 | 1011.8 |
| 20260504173855 | 21 | 186 | 3.2 | 11.3 | 0.00 | 0.00 | 0.00 | 39 | 1011.8 |
| 20260504173356 | 20 | 216 | 4.8 | 11.3 | 0.00 | 0.00 | 0.00 | 41 | 1011.8 |
| 20260504172855 | 21 | 147 | 3.2 | 11.3 | 0.00 | 0.00 | 0.00 | 41 | 1011.9 |
| 20260504172355 | 21 | 73 | 3.2 | 9.7 | 0.00 | 0.00 | 0.00 | 40 | 1011.9 |
| 20260504171854 | 20 | 331 | 3.2 | 9.7 | 0.00 | 0.00 | 0.00 | 41 | 1012.1 |
| 20260504171357 | 20 | 180 | 3.2 | 9.7 | 0.00 | 0.00 | 0.00 | 41 | 1012.1 |
| 20260504170857 | 19 | 196 | 4.8 | 11.3 | 0.00 | 0.00 | 0.00 | 42 | 1012.2 |
| 20260504170354 | 19 | 146 | 4.8 | 11.3 | 0.00 | 0.00 | 0.00 | 40 | 1012.3 |
| 20260504160338 | 19 | 218 | 3.2 | 8.0 | 0.00 | 0.00 | 0.00 | 45 | 1013.0 |
| 20260504150756 | 17 | 202 | 3.2 | 11.3 | 0.00 | 0.00 | 0.00 | 48 | 1013.6 |
| 20260504150313 | 16 | 198 | 4.8 | 12.9 | 0.00 | 0.00 | 0.00 | 44 | 1013.7 |
| 20260504141251 | 15 | 183 | 3.2 | 9.7 | 0.00 | 0.00 | 0.00 | 50 | 1013.7 |
| 20260504140751 | 15 | 183 | 3.2 | 9.7 | 0.00 | 0.00 | 0.00 | 48 | 1013.8 |
| 20260504140250 | 15 | 175 | 4.8 | 11.3 | 0.00 | 0.00 | 0.00 | 49 | 1013.8 |
| 20260504120228 | 9 | 185 | 3.2 | 6.4 | 0.00 | 0.03 | 0.00 | 69 | 1014.1 |
| 20260504110711 | 7 | 188 | 1.6 | 3.2 | 0.00 | 0.03 | 0.00 | 68 | 1014.2 |
| 20260504081853 | 7 | 188 | 3.2 | 6.4 | 0.00 | 0.03 | 0.00 | 62 | 1014.9 |
| 20260504081349 | 7 | 188 | 1.6 | 6.4 | 0.00 | 0.03 | 0.00 | 62 | 1014.8 |
| 20260504080841 | 6 | 207 | 0.0 | 3.2 | 0.00 | 0.03 | 0.00 | 64 | 1014.8 |
| 20260504080335 | 6 | 207 | 0.0 | 1.6 | 0.00 | 0.03 | 0.00 | 65 | 1014.7 |
| 20260504070223 | 5 | 207 | 0.0 | 0.0 | 0.00 | 0.03 | 0.00 | 72 | 1014.8 |
| 20260504050652 | 6 | 231 | 1.6 | 3.2 | 0.00 | 0.05 | 0.00 | 64 | 1015.2 |
| 20260504050152 | 6 | 231 | 1.6 | 3.2 | 0.00 | 0.05 | 0.00 | 66 | 1015.2 |
| 20260504045654 | 6 | 350 | 0.0 | 1.6 | 0.00 | 0.05 | 0.00 | 68 | 1015.1 |
| 20260504045152 | 6 | 350 | 0.0 | 1.6 | 0.00 | 0.05 | 0.00 | 68 | 1015.1 |
| 20260504044652 | 6 | 350 | 0.0 | 1.6 | 0.00 | 0.05 | 0.00 | 68 | 1015.1 |
| 20260504044153 | 6 | 350 | 0.0 | 0.0 | 0.00 | 0.05 | 0.00 | 69 | 1015.1 |
| 20260504043151 | 6 | 350 | 0.0 | 0.0 | 0.00 | 0.05 | 0.00 | 69 | 1015.0 |
| 20260504042152 | 6 | 350 | 0.0 | 0.0 | 0.00 | 0.05 | 0.00 | 67 | 1015.0 |
| 20260504041646 | 6 | 350 | 0.0 | 0.0 | 0.00 | 0.05 | 0.00 | 70 | 1015.0 |
| 20260504041139 | 6 | 350 | 0.0 | 1.6 | 0.00 | 0.05 | 0.00 | 68 | 1014.9 |
| 20260504040633 | 6 | 350 | 0.0 | 1.6 | 0.00 | 0.05 | 0.00 | 67 | 1014.8 |
| 20260504040127 | 6 | 350 | 0.0 | 0.0 | 0.00 | 0.05 | 0.00 | 66 | 1014.8 |
| 20260504035116 | 7 | 350 | 0.0 | 0.0 | 0.00 | 0.05 | 0.05 | 66 | 1014.8 |
| 20260504034611 | 7 | 350 | 0.0 | 0.0 | 0.00 | 0.05 | 0.05 | 67 | 1014.9 |
| 20260504034105 | 7 | 350 | 0.0 | 1.6 | 0.00 | 0.05 | 0.05 | 68 | 1014.9 |
| 20260504033558 | 7 | 350 | 0.0 | 1.6 | 0.00 | 0.05 | 0.05 | 66 | 1014.9 |
| 20260504033052 | 7 | 350 | 0.0 | 1.6 | 0.00 | 0.05 | 0.05 | 67 | 1014.9 |
| 20260504032041 | 7 | 350 | 0.0 | 0.0 | 0.00 | 0.05 | 0.05 | 64 | 1014.8 |
| 20260504031535 | 7 | 350 | 0.0 | 0.0 | 0.00 | 0.05 | 0.05 | 63 | 1014.7 |
| 20260504031028 | 7 | 350 | 0.0 | 0.0 | 0.00 | 0.05 | 0.05 | 65 | 1014.6 |
| 20260504030522 | 7 | 350 | 0.0 | 0.0 | 0.00 | 0.05 | 0.05 | 65 | 1014.7 |
| 20260504025511 | 7 | 350 | 0.0 | 0.0 | 0.00 | 0.05 | 0.05 | 66 | 1014.6 |
| 20260504025005 | 7 | 350 | 0.0 | 0.0 | 0.00 | 0.05 | 0.05 | 65 | 1014.6 |
| 20260504024458 | 7 | 350 | 0.0 | 0.0 | 0.00 | 0.05 | 0.05 | 66 | 1014.6 |
| 20260504023953 | 7 | 350 | 0.0 | 1.6 | 0.00 | 0.05 | 0.05 | 66 | 1014.6 |
| 20260504022939 | 7 | 350 | 0.0 | 0.0 | 0.00 | 0.05 | 0.05 | 64 | 1014.6 |
| 20260504022438 | 7 | 350 | 0.0 | 0.0 | 0.00 | 0.05 | 0.05 | 62 | 1014.6 |
| 20260504021938 | 7 | 350 | 0.0 | 0.0 | 0.00 | 0.05 | 0.05 | 63 | 1014.6 |
| 20260504021436 | 7 | 350 | 0.0 | 1.6 | 0.00 | 0.05 | 0.05 | 66 | 1014.5 |
| 20260504020938 | 7 | 350 | 0.0 | 1.6 | 0.00 | 0.05 | 0.05 | 66 | 1014.5 |
| 20260504020436 | 8 | 350 | 0.0 | 1.6 | 0.00 | 0.05 | 0.05 | 64 | 1014.5 |
| 20260504015933 | 8 | 350 | 0.0 | 0.0 | 0.00 | 0.05 | 0.05 | 61 | 1014.5 |
| 20260504015434 | 8 | 350 | 0.0 | 0.0 | 0.00 | 0.05 | 0.05 | 60 | 1014.5 |
| 20260504014430 | 8 | 350 | 0.0 | 1.6 | 0.00 | 0.05 | 0.05 | 63 | 1014.5 |
| 20260504013925 | 8 | 350 | 0.0 | 1.6 | 0.00 | 0.05 | 0.05 | 63 | 1014.5 |
| 20260504013427 | 8 | 350 | 0.0 | 0.0 | 0.00 | 0.05 | 0.05 | 59 | 1014.4 |
| 20260504012924 | 8 | 350 | 0.0 | 0.0 | 0.00 | 0.05 | 0.05 | 57 | 1014.4 |
| 20260504012422 | 8 | 350 | 0.0 | 3.2 | 0.00 | 0.05 | 0.05 | 56 | 1014.4 |
| 20260504011922 | 8 | 350 | 0.0 | 3.2 | 0.00 | 0.05 | 0.05 | 55 | 1014.2 |
| 20260504011423 | 9 | 350 | 0.0 | 1.6 | 0.00 | 0.05 | 0.05 | 60 | 1014.2 |
| 20260504010918 | 9 | 350 | 0.0 | 1.6 | 0.00 | 0.05 | 0.05 | 58 | 1014.1 |
| 20260504010417 | 9 | 350 | 0.0 | 0.0 | 0.00 | 0.05 | 0.05 | 54 | 1014.1 |
| 20260504005917 | 10 | 350 | 0.0 | 3.2 | 0.00 | 0.05 | 0.05 | 51 | 1014.2 |
| 20260504005417 | 10 | 350 | 0.0 | 3.2 | 0.00 | 0.05 | 0.05 | 50 | 1014.2 |
| 20260504004916 | 10 | 350 | 0.0 | 0.0 | 0.00 | 0.05 | 0.05 | 49 | 1014.1 |
| 20260504004415 | 10 | 350 | 0.0 | 0.0 | 0.00 | 0.05 | 0.05 | 49 | 1014.0 |
| 20260504003915 | 10 | 350 | 0.0 | 0.0 | 0.00 | 0.05 | 0.05 | 47 | 1013.9 |
| 20260504003415 | 11 | 350 | 0.0 | 0.0 | 0.00 | 0.05 | 0.05 | 47 | 1014.0 |
| 20260504001916 | 11 | 350 | 0.0 | 0.0 | 0.00 | 0.05 | 0.05 | 46 | 1013.7 |
| 20260504001417 | 11 | 350 | 0.0 | 1.6 | 0.00 | 0.05 | 0.05 | 45 | 1013.8 |
| 20260504000917 | 12 | 350 | 0.0 | 1.6 | 0.00 | 0.05 | 0.05 | 44 | 1013.8 |
| 20260504000416 | 12 | 350 | 0.0 | 1.6 | 0.00 | 0.05 | 0.05 | 43 | 1013.7 |
| 20260503235917 | 12 | 350 | 0.0 | 1.6 | 0.00 | 0.05 | 0.05 | 43 | 1013.7 |
| 20260503235416 | 12 | 350 | 0.0 | 1.6 | 0.00 | 0.05 | 0.05 | 43 | 1013.6 |
| 20260503234916 | 13 | 350 | 0.0 | 3.2 | 0.00 | 0.05 | 0.05 | 43 | 1013.6 |
| 20260503233914 | 13 | 312 | 1.6 | 4.8 | 0.00 | 0.05 | 0.05 | 41 | 1013.5 |
| 20260503233415 | 13 | 312 | 1.6 | 4.8 | 0.00 | 0.05 | 0.05 | 39 | 1013.4 |
| 20260503232914 | 13 | 312 | 1.6 | 4.8 | 0.00 | 0.05 | 0.05 | 38 | 1013.4 |
| 20260503232412 | 13 | 286 | 0.0 | 4.8 | 0.00 | 0.05 | 0.05 | 38 | 1013.3 |
| 20260503231910 | 14 | 323 | 1.6 | 4.8 | 0.00 | 0.05 | 0.05 | 39 | 1013.1 |
| 20260503231410 | 14 | 75 | 1.6 | 6.4 | 0.00 | 0.05 | 0.05 | 38 | 1013.1 |
| 20260503230912 | 14 | 332 | 3.2 | 8.0 | 0.00 | 0.05 | 0.05 | 37 | 1013.1 |
| 20260503230408 | 14 | 299 | 3.2 | 9.7 | 0.00 | 0.05 | 0.05 | 37 | 1013.1 |
| 20260503225909 | 14 | 257 | 3.2 | 9.7 | 0.00 | 0.05 | 0.05 | 36 | 1013.1 |
| 20260503225408 | 14 | 314 | 3.2 | 6.4 | 0.00 | 0.05 | 0.05 | 36 | 1013.3 |
| 20260503224908 | 14 | 294 | 3.2 | 11.3 | 0.00 | 0.05 | 0.05 | 38 | 1013.3 |
| 20260503224408 | 14 | 309 | 3.2 | 11.3 | 0.00 | 0.05 | 0.05 | 37 | 1013.3 |
| 20260503223905 | 14 | 268 | 3.2 | 9.7 | 0.00 | 0.05 | 0.05 | 38 | 1013.4 |
| 20260503223406 | 14 | 317 | 4.8 | 9.7 | 0.00 | 0.05 | 0.05 | 36 | 1013.3 |
| 20260503222905 | 14 | 313 | 3.2 | 11.3 | 0.00 | 0.05 | 0.05 | 37 | 1013.3 |
| 20260503222407 | 14 | 308 | 3.2 | 11.3 | 0.00 | 0.05 | 0.05 | 36 | 1013.3 |
| 20260503221906 | 14 | 315 | 3.2 | 11.3 | 0.00 | 0.05 | 0.05 | 36 | 1013.3 |
| 20260503221400 | 15 | 313 | 3.2 | 9.7 | 0.00 | 0.05 | 0.05 | 35 | 1013.3 |
| 20260503220855 | 15 | 238 | 3.2 | 8.0 | 0.00 | 0.05 | 0.05 | 37 | 1013.3 |
| 20260503215842 | 15 | 288 | 3.2 | 11.3 | 0.00 | 0.05 | 0.05 | 37 | 1013.4 |